AirNav   Air Wisconsin Up To $57,000 Bonus
 
 250 users online  

LL10 Naper Aero Club Airport
Naperville, Illinois, USA

GOING TO NAPERVILLE?


FAA INFORMATION EFFECTIVE 10 OCTOBER 2019

Location

FAA Identifier: LL10
Lat/Long: 41-44-10.6000N 088-12-09.9000W
41-44.176667N 088-12.165000W
41.7362778,-88.2027500
(estimated)
Elevation: 709.1 ft. / 216 m (estimated)
Variation: 04W (2020)
From city: 3 miles SW of NAPERVILLE, IL
Time zone: UTC -5 (UTC -6 during Standard Time)
Zip code: 60564

Airport Operations

Airport use: Private use. Permission required prior to landing
Activation date: 11/1962
Control tower: no
ARTCC: CHICAGO CENTER
FSS: KANKAKEE FLIGHT SERVICE STATION
NOTAMs facility: FDC (NOTAM-D service not available)
Attendance: UNATNDD
Wind indicator: yes
Segmented circle: no
Lights: ACTIVATE VASI RY 18 & 36; LIRL RY 18/36 PRESET ON LOW INTST; TO INCR INTST ACTVT - 122.9.

Airport Communications

WX AWOS-3 at LOT (9 nm SE): 118.525 (815-588-4802)
WX ASOS at DPA (10 nm N): PHONE 630-584-2728
WX ASOS at ARR (12 nm W): PHONE 630-466-5622
WX AWOS-3 at JOT (13 nm S): 119.975 (815-730-9560)
WX AWOS-3 at 06C (16 nm N): 128.275 ((847) 895-2887)
WX ASOS at ORD (19 nm NE): PHONE 773-462-0118

Nearby radio navigation aids

VOR radial/distance  VOR name  Freq  Var
DPAr143/11.4DUPAGE VOR/DME108.4002E
JOTr022/12.5JOLIET VOR/DME112.3002E
OBKr203/31.2NORTHBROOK VOR/DME113.0002W
CGTr294/31.4CHICAGO HEIGHTS VORTAC114.2002E
EONr325/33.6PEOTONE VORTAC113.2002E

Airport Services

Fuel available: 100
Airframe service: NONE
Powerplant service: NONE

Runway Information

Runway 18/36

Dimensions: 2537 x 30 ft. / 773 x 9 m
Surface: asphalt
SLIPPERY WHEN WET.
Runway edge lights: low intensity
RUNWAY 18  RUNWAY 36
Latitude: 41-44.385833N41-43.968167N
Longitude: 088-12.161500W088-12.169333W
Elevation: 701.9 ft.705.3 ft.
Traffic pattern: leftleft
Displaced threshold: no233 ft.
Visual slope indicator: 2-box VASI on left (3.25 degrees glide path)2-box VASI on left (3.25 degrees glide path)
Touchdown point: yes, no lightsyes, no lights
Obstructions: none15 ft. road, 50 ft. from runway

Runway 9/27

Dimensions: 1750 x 70 ft. / 533 x 21 m
Surface: turf
RUNWAY 9  RUNWAY 27
Traffic pattern: leftleft
Displaced threshold: 150 ft.no
Obstructions: 28 ft. house, 270 ft. from runway, 1:1 slope to clearnone

Airport Ownership and Management from official FAA records

Ownership: Privately-owned
Owner: NAPER AERO CLUB INC
9 SOUTH 357 AERO DR.
NAPERVILLE, IL 60564
Phone 630-961-1520
Manager: KENT KREUGER
9 SOUTH 357 AERO DR.
NAPERVILLE, IL 60564
Phone 630-207-0415

Airport Operational Statistics

Aircraft based on the field: 110
Single engine airplanes: 106
Multi engine airplanes: 3
Helicopters: 1
    

Additional Remarks

RWY 36 ACFT PARKED ON PRIM SFC.
RY 18 HAS 2330 FT AVBL FOR USE DURING TKOF.
FOR CD CTC CHICAGO APCH AT 847-289-0926.
PILOTS REQD TO AVOID USE OF RWY 27 FOR DEPS FOR NOISE ABATEMENT.

Instrument Procedures

There are no published instrument procedures at LL10.

Some nearby airports with instrument procedures:

1C5 - Bolingbrook's Clow International Airport (4 nm SE)
KLOT - Lewis University Airport (9 nm SE)
KDPA - DuPage Airport (10 nm N)
KARR - Aurora Municipal Airport (12 nm W)
KORD - Chicago O'Hare International Airport (19 nm NE)
 
Loc | Ops | Rwys | IFR | FBO | Links
Com | Nav | Svcs | Stats | Notes
Area around LL10 (Naper Aero Club Airport)
 
Road maps at: MapQuest Bing Google
 
Aerial photo
WARNING: Photo may not be current or correct
Aerial photo of LL10 (Naper Aero Club Airport)
Photo by Mark D'Asta
Photo taken 26-Apr-2013
looking north.

Do you have a better or more recent aerial photo of Naper Aero Club Airport that you would like to share? If so, please send us your photo.

 
Sectional chart

 
Airport distance calculator
Flying to Naper Aero Club Airport? Find the distance to fly.

From to LL10

Sunrise and sunset
Times for 14-Oct-2019
 Local
(UTC-5)
 Zulu
(UTC)
Morning civil twilight06:3711:37
Sunrise07:0512:05
Sunset18:1323:13
Evening civil twilight18:4123:41

Current date and time
Zulu (UTC)  14-Oct-2019 08:40:31
Local (UTC-5)  14-Oct-2019 03:40:31
 
METAR
KLOT 
9nm SE 
140815Z AUTO 27005KT 10SM CLR 04/01 A3000 RMK AO2 T00420014
KDPA 
11nm N 
140752Z 26004KT 10SM CLR 04/M01 A2998 RMK AO2 SLP155 T00391006
KARR 
13nm W 
140752Z AUTO 25004KT 10SM CLR 02/M01 A2999 RMK AO2 SLP160 T00171006 TSNO
KJOT 
13nm S 
140815Z AUTO 00000KT 10SM CLR 06/02 A2999 RMK AO2 T00580022
K06C 
16nm N 
140815Z AUTO 00000KT 10SM CLR 02/00 A2998 RMK AO2 T00210003
KORD 
19nm NE 
140751Z 25005KT 10SM FEW075 04/00 A2998 RMK AO2 SLP154 T00440000 $
TAF
KDPA 
11nm N 
140520Z 1406/1506 28006KT P6SM BKN060 FM150100 16004KT P6SM SCT250
KORD 
19nm NE 
140520Z 1406/1512 28007KT P6SM SCT090 FM150100 16005KT P6SM SCT250
NOTAMs
Click for the latest NOTAMs
NOTAMs are issued by the DoD/FAA and will open in a separate window not controlled by AirNav.

 

 
 

Would you like to see your business listed on this page?

 If your business provides an interesting product or service to pilots, flight crews, aircraft, or users of the Naper Aero Club Airport, you should consider listing it here.  To start the listing process, click on the button below
 
Add a business
 

Other Pages about Naper Aero Club Airport

www.naperaero.com/id9.html
 
Update a link
 
Copyright © AirNav, LLC. All rights reserved. Privacy Policy  Contact